CW4588 Seinajoki FI current weather conditions

sailwx.info

Wind from 292 at 6 knots

Air temperature 1.1° C
Dewpoint -2.8° C

Last reported at 2020-Jan-21 22:00 UTC.
Time now 2020-Jan-21 22:35 UTC

Location: N 62°47' E 022°49'.
View on Google Maps.

See reports from other nearby stations

  
Tides and Currents Weather Stations Pressure Air Temp Water Temp Dewpoint Dewpoint Depression Visibility Wind Speed Wind Dir Waves Ship Positions
date/time (UTC)wind fromknots sea level pressurealtimeterstation pressurevisibilityair tempwater tempwave heightnotes
2020-Jan-21 22:00 292 6 1.1
2020-Jan-21 21:50 258 6 1.1
2020-Jan-21 21:40 263 5 1.1
2020-Jan-21 21:30 263 6 1.1
2020-Jan-21 21:20 258 5 1.1
2020-Jan-21 21:10 244 5 1.1
2020-Jan-21 21:00 268 5 1.1
2020-Jan-21 20:50 274 3 1.1
2020-Jan-21 20:40 254 5 1.7
2020-Jan-21 20:30 253 6 1.1
2020-Jan-21 20:20 256 5 1.1
2020-Jan-21 20:10 250 5 1.1
2020-Jan-21 20:00 234 4 1.1
2020-Jan-21 19:50 247 5 1.1
2020-Jan-21 19:40 244 5 1.1
2020-Jan-21 19:30 253 3 1.1
2020-Jan-21 19:20 224 3 1.1
2020-Jan-21 19:10 248 3 1.1
2020-Jan-21 19:00 270 5 1.7
2020-Jan-21 18:50 251 5 1.7
2020-Jan-21 18:40 256 6 1.7
2020-Jan-21 18:30 270 6 1.7
2020-Jan-21 18:20 244 5 1.7
2020-Jan-21 18:10 247 6 1.7
2020-Jan-21 18:00 241 6 1.7
2020-Jan-21 17:50 270 5 1.7
2020-Jan-21 17:40 260 6 1.7
2020-Jan-21 17:30 264 5 1.7
2020-Jan-21 17:20 289 5 1.7
2020-Jan-21 17:10 209 4 1.7
2020-Jan-21 17:00 267 4 1.7
2020-Jan-21 16:50 263 5 1.7
2020-Jan-21 16:40 217 7 1.7
2020-Jan-21 16:30 261 6 1.7
2020-Jan-21 16:20 272 6 1.7
2020-Jan-21 16:10 281 6 1.7
2020-Jan-21 16:00 256 5 1.7
2020-Jan-21 15:50 244 6 1.7
2020-Jan-21 15:40 264 6 1.7
2020-Jan-21 15:30 247 6 1.7
2020-Jan-21 15:20 244 6 1.7
2020-Jan-21 15:10 247 6 1.7
2020-Jan-21 15:00 263 4 1.7
2020-Jan-21 14:50 227 6 2.2
2020-Jan-21 14:40 239 6 1.7
2020-Jan-21 14:30 256 5 2.2
2020-Jan-21 14:20 240 5 2.2
2020-Jan-21 14:10 250 5 2.2
2020-Jan-21 14:00 241 4 2.2
2020-Jan-21 13:50 278 6 2.2
2020-Jan-21 13:40 253 5 2.2
2020-Jan-21 13:30 250 4 2.2
2020-Jan-21 13:20 261 5 2.8
2020-Jan-21 13:10 280 5 2.8
2020-Jan-21 13:00 251 6 2.8
2020-Jan-21 12:50 240 4 2.8
2020-Jan-21 12:40 275 6 2.8
2020-Jan-21 12:30 257 6 2.8
2020-Jan-21 12:20 208 7 2.8
2020-Jan-21 12:10 257 6 2.8
2020-Jan-21 12:00 306 6 2.8
2020-Jan-21 11:50 272 5 2.8
2020-Jan-21 11:41 263 6 2.8
2020-Jan-21 11:30 272 5 2.8
2020-Jan-21 11:20 257 4 2.8
2020-Jan-21 11:10 237 6 2.8
2020-Jan-21 11:00 243 6 2.8
2020-Jan-21 10:50 326 6 2.8
2020-Jan-21 10:40 275 7 2.8
2020-Jan-21 10:30 299 6 2.8
2020-Jan-21 10:20 265 5 2.8
2020-Jan-21 10:10 272 6 2.8
2020-Jan-21 10:00 272 4 2.8
2020-Jan-21 09:50 256 2 3.3
2020-Jan-21 09:40 304 4 3.3
2020-Jan-21 09:30 263 6 3.3
2020-Jan-21 09:20 270 6 3.3
2020-Jan-21 09:10 285 5 3.3
2020-Jan-21 09:00 277 4 3.3
2020-Jan-21 08:50 281 5 3.3
2020-Jan-21 08:40 305 4 3.3
2020-Jan-21 08:30 289 5 3.3
2020-Jan-21 08:20 311 5 3.3
2020-Jan-21 08:10 263 5 3.3
2020-Jan-21 08:00 304 6 3.3
2020-Jan-21 07:50 261 5 3.3
2020-Jan-21 07:40 298 5 3.3
2020-Jan-21 07:30 271 4 3.3
2020-Jan-21 07:20 260 4 3.3
2020-Jan-21 07:10 264 4 3.3
2020-Jan-21 07:00 274 5 3.9
2020-Jan-21 06:50 270 6 3.9
2020-Jan-21 06:40 287 5 3.9
2020-Jan-21 06:30 277 4 3.9
2020-Jan-21 06:20 253 5 4.4
2020-Jan-21 06:10 275 6 4.4
2020-Jan-21 06:00 260 6 4.4
2020-Jan-21 05:50 295 6 5.0
2020-Jan-21 05:40 277 6 5.0
2020-Jan-21 05:30 284 7 5.0
2020-Jan-21 05:20 299 8 5.6
2020-Jan-21 05:10 285 8 5.6
2020-Jan-21 05:00 274 7 5.6
2020-Jan-21 04:50 257 8 6.1
2020-Jan-21 04:40 315 8 6.1
2020-Jan-21 04:30 280 7 6.7
2020-Jan-21 04:20 316 7 6.7
2020-Jan-21 04:10 302 6 6.7
2020-Jan-21 04:00 319 8 6.7
2020-Jan-21 03:50 265 7 7.2
2020-Jan-21 03:40 256 9 7.2
2020-Jan-21 03:30 263 7 7.2
2020-Jan-21 03:20 288 8 7.2
2020-Jan-21 03:10 248 6 7.2
2020-Jan-21 03:00 250 8 7.2
2020-Jan-21 02:50 219 7 7.2
2020-Jan-21 02:40 288 7 7.2
2020-Jan-21 02:30 291 6 7.2
2020-Jan-21 02:20 264 6 7.2
2020-Jan-21 02:10 284 6 7.2
2020-Jan-21 02:00 284 6 7.2
2020-Jan-21 01:50 284 6 7.2
2020-Jan-21 01:40 278 6 7.2
2020-Jan-21 01:30 254 6 7.2
2020-Jan-21 01:20 264 6 7.2
2020-Jan-21 01:10 243 6 7.8
2020-Jan-21 01:00 240 6 7.8
2020-Jan-21 00:50 263 6 8.3
2020-Jan-21 00:40 264 6 8.3
2020-Jan-21 00:30 267 6 8.3
2020-Jan-21 00:20 296 6 8.3
2020-Jan-21 00:10 240 6 8.3
2020-Jan-21 00:00 205 6 8.3
2020-Jan-20 23:50 264 8 8.3
2020-Jan-20 23:40 248 6 8.3
2020-Jan-20 23:30 256 6 8.3
2020-Jan-20 23:20 243 6 8.3
2020-Jan-20 23:10 226 7 8.3
2020-Jan-20 23:00 241 6 8.3
2020-Jan-20 22:50 257 7 8.3
2020-Jan-20 22:40 167 6 8.3
2020-Jan-20 22:30 271 8 8.3
2020-Jan-20 22:20 263 6 8.3
2020-Jan-20 22:10 258 8 8.3
2020-Jan-20 22:00 236 6 7.8
2020-Jan-20 21:50 248 6 7.8
2020-Jan-20 21:40 256 8 7.8
2020-Jan-20 21:30 272 7 7.8
2020-Jan-20 21:20 239 8 7.8
2020-Jan-20 21:10 253 7 7.8
2020-Jan-20 21:00 253 8 7.2
2020-Jan-20 20:50 257 8 6.7
2020-Jan-20 20:40 216 6 6.7
2020-Jan-20 20:30 260 6 6.7
2020-Jan-20 20:20 216 8 6.7
2020-Jan-20 20:10 241 8 6.7
2020-Jan-20 20:00 258 10 6.1
2020-Jan-20 19:50 227 7 6.1
2020-Jan-20 19:40 219 6 5.6
2020-Jan-20 19:30 263 6 5.0
2020-Jan-20 19:20 251 6 5.0
2020-Jan-20 19:10 226 6 5.0
2020-Jan-20 19:00 230 8 5.0
2020-Jan-20 18:50 232 6 4.4
2020-Jan-20 18:40 234 6 4.4
2020-Jan-20 18:30 226 7 4.4
2020-Jan-20 18:20 208 6 4.4
2020-Jan-20 18:10 237 8 4.4
2020-Jan-20 18:00 236 7 3.9
2020-Jan-20 17:50 200 8 3.9
2020-Jan-20 17:40 250 6 3.9
2020-Jan-20 17:30 233 6 3.3
2020-Jan-20 17:20 200 7 3.3
2020-Jan-20 17:10 223 6 3.3
2020-Jan-20 17:00 188 6 3.3
2020-Jan-20 16:50 233 5 3.3
2020-Jan-20 16:40 226 6 3.3
2020-Jan-20 16:30 224 6 3.3
2020-Jan-20 16:20 212 5 3.3
2020-Jan-20 16:10 224 6 3.3
2020-Jan-20 16:00 216 5 3.3
2020-Jan-20 15:51 251 5 3.3
2020-Jan-20 15:40 247 5 3.3
2020-Jan-20 15:30 232 5 3.3
2020-Jan-20 15:20 226 4 3.3
2020-Jan-20 15:10 241 4 3.9
2020-Jan-20 15:00 246 4 3.9
2020-Jan-20 14:50 219 5 3.9
2020-Jan-20 14:40 230 5 3.9
2020-Jan-20 14:30 258 6 3.9
2020-Jan-20 14:20 210 5 3.9
2020-Jan-20 14:11 233 6 3.3
2020-Jan-20 14:00 209 5 3.3
2020-Jan-20 13:50 258 6 3.3
2020-Jan-20 13:40 265 5 3.3
2020-Jan-20 13:30 265 5 3.3
2020-Jan-20 13:20 254 6 3.3
2020-Jan-20 13:10 217 7 3.3
2020-Jan-20 13:00 213 6 3.3
2020-Jan-20 12:50 261 6 3.3
2020-Jan-20 12:40 270 6 3.3
2020-Jan-20 12:30 253 8 3.3
2020-Jan-20 12:20 261 7 3.3
2020-Jan-20 12:10 244 6 3.3
2020-Jan-20 11:50 239 6 3.3
2020-Jan-20 11:40 241 6 3.3
2020-Jan-20 11:30 246 6 2.8
2020-Jan-20 11:20 254 6 2.8
2020-Jan-20 11:10 251 6 2.8
2020-Jan-20 11:00 254 6 2.8
2020-Jan-20 10:50 247 6 2.8
2020-Jan-20 10:40 268 6 2.8
2020-Jan-20 10:30 219 6 2.8
2020-Jan-20 10:20 278 6 2.8
2020-Jan-20 10:10 186 7 2.2
2020-Jan-20 10:00 244 6 2.2
2020-Jan-20 09:50 205 7 2.2
2020-Jan-20 09:40 240 7 2.2
2020-Jan-20 09:30 223 9 2.2
2020-Jan-20 09:20 229 8 1.7
2020-Jan-20 09:10 199 8 2.2
2020-Jan-20 09:00 251 7 1.7
2020-Jan-20 08:50 213 6 1.7
2020-Jan-20 08:40 243 7 1.1
2020-Jan-20 08:30 246 7 1.1
2020-Jan-20 08:20 243 7 1.1
2020-Jan-20 08:10 202 7 1.1
2020-Jan-20 08:00 213 6 1.1
2020-Jan-20 07:50 191 6 1.1
2020-Jan-20 07:40 200 6 1.1
2020-Jan-20 07:30 241 6 1.1
2020-Jan-20 07:20 240 6 1.1
2020-Jan-20 07:10 209 6 0.6
2020-Jan-20 07:00 209 6 0.6
2020-Jan-20 06:50 227 6 0.6
2020-Jan-20 06:40 243 6 0.6
2020-Jan-20 06:30 248 5 0.6
2020-Jan-20 06:20 208 4 0.6
2020-Jan-20 06:10 195 5 0.6
2020-Jan-20 06:00 172 4 -0.0
2020-Jan-20 05:50 198 2 -0.0
2020-Jan-20 05:40 192 2 -0.0
2020-Jan-20 05:30 210 1 -0.0
2020-Jan-20 05:21 212 1 -0.0
2020-Jan-20 05:10 222 3 -0.0
2020-Jan-20 05:00 215 2 -0.0
2020-Jan-20 04:50 215 2 -0.0
2020-Jan-20 04:40 212 2 -0.0
2020-Jan-20 04:30 205 3 -0.0
2020-Jan-20 04:20 209 2 -0.0
2020-Jan-20 04:10 227 3 -0.0
2020-Jan-20 04:00 240 4 -0.0
2020-Jan-20 03:50 247 3 -0.0
2020-Jan-20 03:40 212 3 -0.0
2020-Jan-20 03:30 213 3 -0.0
2020-Jan-20 03:20 220 3 -0.0
2020-Jan-20 03:10 215 2 -0.0
2020-Jan-20 03:00 229 4 -0.0
2020-Jan-20 02:50 216 3 -0.0
2020-Jan-20 02:40 232 4 -0.0
2020-Jan-20 02:30 210 3 -0.0
2020-Jan-20 02:20 196 4 -0.0
2020-Jan-20 02:10 219 4 -0.6
2020-Jan-20 02:00 248 4 -0.6
2020-Jan-20 01:50 229 4 -0.6
2020-Jan-20 01:40 208 4 -1.1
2020-Jan-20 01:31 250 3 -1.1
2020-Jan-20 01:20 256 3 -1.1
2020-Jan-20 01:10 227 2 -1.1
2020-Jan-20 01:00 224 3 -1.7
2020-Jan-20 00:50 219 3 -1.7
2020-Jan-20 00:40 227 2 -1.7
2020-Jan-20 00:30 217 2 -2.2
2020-Jan-20 00:20 212 1 -2.2
2020-Jan-20 00:10 250 -2.2
2020-Jan-20 00:00 202 -2.2
2020-Jan-19 23:50 200 -2.2
2020-Jan-19 23:40 200 -2.2
2020-Jan-19 23:30 200 0 -2.2
2020-Jan-19 23:20 230 -2.2
2020-Jan-19 23:10 230 -2.8
2020-Jan-19 23:00 230 -2.8
2020-Jan-19 22:50 230 2 -2.8
2020-Jan-19 22:40 251 1 -2.8
2020-Jan-19 22:30 251 0 -2.8
2020-Jan-19 22:21 271 -2.8
2020-Jan-19 22:10 271 0 -2.8
2020-Jan-19 22:00 257 0 -2.8